This is the latest recevied weather packets stored in our database for station/object HG8GL-6. If no packets are shown the sender has not sent any weather packets the latest 10 day(s).
| Time | Temp. | Humidity | Pressure | Rain* | Wind** | Luminosity | Snow |
|---|---|---|---|---|---|---|---|
| 1778253354 | 24.44° C | 41% | 1014 hPa | 0 mm | - | - | - |
| 1778252754 | 24.44° C | 41% | 1015 hPa | 0 mm | - | - | - |
| 1778252154 | 25° C | 42% | 1015 hPa | 0 mm | - | - | - |
| 1778251524 | 25° C | 41% | 1015 hPa | 0 mm | - | - | - |
| 1778250894 | 25° C | 42% | 1015 hPa | 0 mm | - | - | - |
| 1778250294 | 25° C | 43% | 1015 hPa | 0 mm | - | - | - |
| 1778249694 | 25° C | 43% | 1015 hPa | 0 mm | - | - | - |
| 1778249004 | 25° C | 42% | 1015 hPa | 0 mm | - | - | - |
| 1778248404 | 25° C | 43% | 1015 hPa | 0 mm | - | - | - |
| 1778247804 | 24.44° C | 43% | 1015 hPa | 0 mm | - | - | - |
| 1778247174 | 24.44° C | 44% | 1015 hPa | 0 mm | - | - | - |
| 1778246574 | 23.89° C | 43% | 1016 hPa | 0 mm | - | - | - |
| 1778245974 | 23.89° C | 44% | 1016 hPa | 0 mm | - | - | - |
| 1778245344 | 23.89° C | 46% | 1016 hPa | 0 mm | - | - | - |
| 1778244744 | 23.33° C | 45% | 1017 hPa | 0 mm | - | - | - |
| 1778244114 | 23.89° C | 44% | 1017 hPa | 0 mm | - | - | - |
| 1778243514 | 23.89° C | 47% | 1016 hPa | 0 mm | - | - | - |
| 1778242914 | 23.33° C | 46% | 1015 hPa | 0 mm | - | - | - |
| 1778242284 | 22.78° C | 49% | 1015 hPa | 0 mm | - | - | - |
| 1778241654 | 22.22° C | 50% | 1016 hPa | 0 mm | - | - | - |
| 1778241054 | 22.22° C | 51% | 1017 hPa | 0 mm | - | - | - |
| 1778240424 | 22.22° C | 49% | 1016.9 hPa | 0 mm | - | - | - |
| 1778239794 | 22.22° C | 52% | 1016 hPa | 0 mm | - | - | - |
| 1778239164 | 22.22° C | 54% | 1016 hPa | 0 mm | - | - | - |
| 1778238534 | 22.78° C | 59% | 1016 hPa | 0 mm | - | - | - |
* Rain latest hour (hover to see other rain measurements)
** Current wind speed in m/s (hover to see current wind gust speed)